Location: Hawks Ness
(60.2333°N, 1.1667°W)
Time: 18:24:25
(UTC+00:00)

NOSS 3-4 (A) - Pass Details

Date: 22 October 2019
Orbit: 907 x 1306 km, 63.4° (Epoch: 10 November)

Event Time Altitude Azimuth Distance (km) Brightness Sun altitude
Exits shadow 05:30:24 - 235° (SW) 2,804 5.4 -11.8°
Reaches altitude 10° 05:30:49 10° 235° (SW) 2,649 5.3 -11.8°
Maximum altitude 05:36:59 82° 149° (SSE) 1,003 3.6 -11.0°
Drops below altitude 10° 05:43:44 10° 63° (ENE) 2,886 7.0 -10.2°
Sets 05:46:30 0° 63° (ENE) 3,903 7.7 -9.8°
